Weather History for Niagara Falls, NY

Change the Weather History Date:

Saturday, August 3, 2013

  Actual Average Record
Temperature  
Mean Temperature 66 °F -  
Max Temperature 75 °F 79 °F 91 °F (2005)
Min Temperature 57 °F 59 °F 55 °F (1996)
Cooling Degree Days 1    
Growing Degree Days 16 (Base 50)    
Moisture  
Dew Point 55 °F    
Average Humidity 72    
Maximum Humidity 97    
Minimum Humidity 40    
Precipitation  
Precipitation 0.00 in - - ()
Sea Level Pressure  
Sea Level Pressure 29.90 in    
Wind  
Wind Speed 8 mph (WNW)    
Max Wind Speed 15 mph    
Max Gust Speed 23 mph    
Visibility 10 miles    
Events      
Averages and records for this station are not official NWS values.
T = Trace of Precipitation, MM = Missing Value Source: NWS Daily Summary

Daily Weather History Graph

Daily Weather History Graph

Search for Another Location

Airport:

Trip Planner

Search our weather history database for the weather conditions in past years. The results will help you decide how hot, cold, wet, or windy it might be!

Date:

Astronomy

Aug. 03, 2013 Rise Set
Actual Time 6:08 AM EDT 8:34 PM EDT
Civil Twilight 5:36 AM EDT 9:06 PM EDT
Nautical Twilight 4:56 AM EDT 9:46 PM EDT
Astronomical Twilight 4:11 AM EDT 10:30 PM EDT
Moon 3:15 AM EDT (8/3) 6:16 PM EDT (8/3)
Length of Visible Light 15h 29m
Length of Day
14h 25m
Waning Crescent, 9% of the Moon is Illuminated
Aug 3
Waning Crescent
Aug 6
New
Aug 14
First Quarter
Aug 20
Full
Aug 28
Last Quarter

Hourly Weather History & Observations

Time (EDT) Temp. Dew Point Humidity Pressure Visibility Wind Dir Wind Speed Gust Speed Precip Events Conditions
12:53 AM 63.0 °F 59.0 °F 87% 29.84 in 10.0 mi West 6.9 mph - N/A   Clear
1:26 AM 62.6 °F 59.0 °F 88% 29.84 in 10.0 mi West 9.2 mph - N/A   Mostly Cloudy
1:41 AM 62.6 °F 60.8 °F 94% 29.84 in 10.0 mi West 6.9 mph - N/A   Overcast
1:53 AM 62.1 °F 59.0 °F 90% 29.84 in 10.0 mi West 6.9 mph - N/A   Scattered Clouds
2:19 AM 62.6 °F 59.0 °F 88% 29.85 in 10.0 mi West 6.9 mph - N/A   Mostly Cloudy
2:36 AM 62.6 °F 59.0 °F 88% 29.85 in 10.0 mi WNW 6.9 mph - N/A   Overcast
2:53 AM 62.1 °F 60.1 °F 93% 29.85 in 10.0 mi WSW 6.9 mph - N/A   Overcast
3:53 AM 60.1 °F 57.9 °F 93% 29.86 in 10.0 mi WNW 4.6 mph - N/A   Scattered Clouds
4:53 AM 57.9 °F 57.0 °F 97% 29.87 in 7.0 mi West 5.8 mph - N/A   Clear
5:53 AM 57.0 °F 55.9 °F 96% 29.89 in 5.0 mi West 5.8 mph - N/A   Clear
6:53 AM 59.0 °F 57.0 °F 93% 29.91 in 8.0 mi WSW 5.8 mph - N/A   Clear
7:04 AM 60.8 °F 57.2 °F 88% 29.91 in 8.0 mi West 3.5 mph - N/A   Scattered Clouds
7:53 AM 62.1 °F 59.0 °F 90% 29.92 in 10.0 mi West 5.8 mph - N/A   Scattered Clouds
8:53 AM 64.9 °F 57.0 °F 75% 29.92 in 10.0 mi WNW 6.9 mph - N/A   Scattered Clouds
9:53 AM 66.9 °F 57.9 °F 73% 29.92 in 10.0 mi WNW 6.9 mph - N/A   Scattered Clouds
10:53 AM 69.1 °F 55.0 °F 61% 29.93 in 10.0 mi WNW 10.4 mph - N/A   Scattered Clouds
11:53 AM 71.1 °F 55.0 °F 57% 29.93 in 10.0 mi WNW 8.1 mph - N/A   Scattered Clouds
12:53 PM 72.0 °F 53.1 °F 51% 29.93 in 10.0 mi NW 11.5 mph - N/A   Scattered Clouds
1:53 PM 73.9 °F 52.0 °F 46% 29.93 in 10.0 mi WNW 11.5 mph - N/A   Scattered Clouds
2:53 PM 73.9 °F 50.0 °F 43% 29.92 in 10.0 mi NW 15.0 mph 23.0 mph N/A   Scattered Clouds
3:53 PM 75.0 °F 52.0 °F 44% 29.91 in 10.0 mi WNW 13.8 mph - N/A   Scattered Clouds
4:53 PM 75.0 °F 48.9 °F 40% 29.91 in 10.0 mi NW 9.2 mph 18.4 mph N/A   Scattered Clouds
5:53 PM 73.9 °F 52.0 °F 46% 29.91 in 10.0 mi West 9.2 mph - N/A   Mostly Cloudy
6:53 PM 73.0 °F 50.0 °F 44% 29.91 in 10.0 mi WNW 15.0 mph - N/A   Scattered Clouds
7:53 PM 70.0 °F 51.1 °F 51% 29.92 in 10.0 mi WNW 10.4 mph - N/A   Mostly Cloudy
8:53 PM 68.0 °F 54.0 °F 61% 29.94 in 10.0 mi WNW 10.4 mph - N/A   Scattered Clouds
9:53 PM 66.0 °F 55.0 °F 68% 29.95 in 10.0 mi WNW 10.4 mph - N/A   Scattered Clouds
10:53 PM 64.9 °F 53.1 °F 65% 29.95 in 10.0 mi WNW 11.5 mph - N/A   Partly Cloudy
11:53 PM 64.0 °F 52.0 °F 65% 29.95 in 10.0 mi WNW 12.7 mph - N/A   Clear